Weather History for Seretse Khama, Botswana

Change the Weather History Date:

Friday, March 8, 2013

  Actual Average Record
Temperature  
Mean Temperature 80 °F -  
Max Temperature 93 °F 82 °F 98 °F (2005)
Min Temperature 68 °F 60 °F 60 °F (2009)
Cooling Degree Days 16    
Growing Degree Days 30 (Base 50)    
Moisture  
Dew Point 58 °F    
Average Humidity 54    
Maximum Humidity 78    
Minimum Humidity 26    
Precipitation  
Precipitation 0.00 in - - ()
Sea Level Pressure  
Sea Level Pressure 29.96 in    
Wind  
Wind Speed 7 mph ()    
Max Wind Speed 14 mph    
Max Gust Speed -    
Visibility 6.2 miles    
Events Thunderstorm    
Averages and records for this station are not official NWS values.
T = Trace of Precipitation, MM = Missing Value Source: Averaged Metar Reports

Daily Weather History Graph

Daily Weather History Graph

Search for Another Location

Airport:

Trip Planner

Search our weather history database for the weather conditions in past years. The results will help you decide how hot, cold, wet, or windy it might be!

Date:

Astronomy

Mar. 08, 2013 Rise Set
Actual Time 6:14 AM CAT 6:39 PM CAT
Civil Twilight 5:51 AM CAT 7:02 PM CAT
Nautical Twilight 5:24 AM CAT 7:28 PM CAT
Astronomical Twilight 4:57 AM CAT 7:55 PM CAT
Moon 2:43 AM CAT (3/8) 4:06 PM CAT (3/8)
Length of Visible Light 13h 10m
Length of Day
12h 24m
Waning Crescent, 14% of the Moon is Illuminated
Mar 8
Waning Crescent
Mar 11
New
Mar 19
First Quarter
Mar 27
Full
Apr 3
Last Quarter

Hourly Weather History & Observations

Time (CAT) Temp. Heat Index Dew Point Humidity Pressure Visibility Wind Dir Wind Speed Gust Speed Precip Events Conditions
12:00 AM 69.8 °F - 60.8 °F 73% 29.98 in 6.2 mi Variable 2.3 mph - N/A   Scattered Clouds
1:00 AM 71.6 °F - 59.0 °F 64% 29.98 in - NE 6.9 mph - N/A   Clear
2:00 AM 71.6 °F - 57.2 °F 60% 29.95 in 6.2 mi NE 5.8 mph - N/A   Partly Cloudy
3:00 AM 69.8 °F - 57.2 °F 64% 29.95 in 6.2 mi ESE 6.9 mph - N/A   Partly Cloudy
4:00 AM 68.0 °F - 59.0 °F 73% 29.95 in - SSE 6.9 mph - N/A   Clear
5:00 AM 68.0 °F - 59.0 °F 73% 29.98 in - SSE 8.1 mph - N/A   Clear
6:00 AM 68.0 °F - 60.8 °F 78% 30.01 in - ESE 9.2 mph - N/A   Clear
7:00 AM 68.0 °F - 60.8 °F 78% 30.01 in - ESE 8.1 mph - N/A   Clear
8:00 AM 71.6 °F - 59.0 °F 64% 30.01 in - East 11.5 mph - N/A   Clear
9:00 AM 77.0 °F - 55.4 °F 47% 30.04 in - ENE 12.7 mph - N/A   Clear
10:00 AM 80.6 °F 80.8 °F 57.2 °F 45% 30.04 in - NE 11.5 mph - N/A   Clear
11:00 AM 80.6 °F 80.8 °F 57.2 °F 45% 30.04 in - NE 11.5 mph - N/A   Clear
12:00 PM 87.8 °F 86.5 °F 57.2 °F 35% 30.01 in 6.2 mi NNE 10.4 mph - N/A   Partly Cloudy
1:00 PM 89.6 °F 87.7 °F 55.4 °F 31% 29.98 in 6.2 mi NNW 9.2 mph - N/A   Scattered Clouds
2:00 PM 91.4 °F 89.9 °F 57.2 °F 31% 29.92 in 6.2 mi ENE 8.1 mph - N/A   Scattered Clouds
3:00 PM 93.2 °F 91.3 °F 55.4 °F 28% 29.89 in 6.2 mi North 8.1 mph - N/A   Scattered Clouds
4:00 PM 91.4 °F - 51.8 °F 26% 29.86 in 6.2 mi NE 13.8 mph - N/A Thunderstorm Thunderstorm
5:00 PM 91.4 °F 89.4 °F 55.4 °F 29% 29.86 in 6.2 mi NNE 6.9 mph - N/A Thunderstorm Thunderstorm
6:00 PM 86.0 °F 84.9 °F 57.2 °F 37% 29.86 in 6.2 mi South 5.8 mph - N/A Thunderstorm Thunderstorm
7:00 PM 84.2 °F 83.8 °F 59.0 °F 42% 29.89 in 6.2 mi NE 10.4 mph - N/A Thunderstorm Thunderstorm
8:00 PM 80.6 °F 81.1 °F 59.0 °F 48% 29.92 in 6.2 mi NE 12.7 mph - N/A Thunderstorm Thunderstorm
9:00 PM 71.6 °F - 64.4 °F 78% 29.95 in 6.2 mi NNW 8.1 mph - N/A Thunderstorm Thunderstorm
10:00 PM 73.4 °F - 62.6 °F 69% 29.98 in 6.2 mi North 6.9 mph - N/A Thunderstorm Thunderstorm
11:00 PM 71.6 °F - 64.4 °F 78% 29.98 in 6.2 mi SSE 6.9 mph - N/A Thunderstorm Thunderstorm